Regional Weather Roundup
Issued by NWS

Home | Current Version | Previous Version | Text Only | Print | Product List | Glossary On
Versions: 1 2 3 4 5 6 7 8 9 10 11 12 13 14 15 16 17 18 19 20 21 22 23 24 25 26 27 28 29 30 31 32 33 34 35 36 37 38 39 40 41 42 43 44 45 46 47 48 49 50
000
ASUS44 KJAN 292110
RWRMS

MISSISSIPPI HOURLY WEATHER ROUNDUP
NATIONAL WEATHER SERVICE JACKSON MS
300 PM CST THU JAN 29 2015

NOTE: "FAIR: INDICATES FEW OR NO CLOUDS BELOW 12,000 FEET WITH NO
SIGNIFICANT WEATHER AND/OR OBSTRUCTIONS TO VISIBILITY.

MSZ001>002-007>008-010>013-018>021-025>028-034>036-292200-
NORTHWEST MISSISSIPPI

CITY           SKY/WX    TMP DP  RH WIND       PRES   REMARKS
CLARKSDALE     FAIR      64  48  55 NW14      30.15R
CLEVELAND      FAIR      69  49  48 MISG      30.12R
GREENWOOD      MOSUNNY   68  51  54 W8G16     30.12R
GREENVILLE     SUNNY     69  49  48 NW8       30.11S
GRENADA        FAIR      68  48  49 W10       30.12R
OLIVE BRANCH   PTSUNNY   61  43  51 W20G26    30.14R
OXFORD         FAIR      63  45  51 NW15G22   30.13R
TUNICA         PTCLDY    63  43  48 N22G28    30.16R
$$

MSZ003>006-009-014>017-022>024-029>033-037>039-292200-
NORTHEAST MISSISSIPPI

CITY           SKY/WX    TMP DP  RH WIND       PRES   REMARKS
COLUMBUS AFB   PTSUNNY   70  46  42 W13       30.08S
CORINTH        FAIR      64  46  52 W10G18    30.07R
GOLDN TRIANGLE SUNNY     70  48  46 SW12      30.08S
STARKVILLE     FAIR      70  48  46 SW9       30.08F
TUPELO         PTSUNNY   67  47  48 W10G17    30.09R
$$

MSZ040-058-292200-
CENTRAL MISSISSIPPI

CITY           SKY/WX    TMP DP  RH WIND       PRES   REMARKS
JACKSON INTL   PTSUNNY   73  47  39 W12G21    30.11S
JACKSON HAWKNS PTSUNNY   72  48  42 W10       30.12S
MERIDIAN KEY   MOSUNNY   74  49  41 SW16G24   30.10F
MERIDIAN NAS   MOSUNNY   72  49  44 SW8G17    30.09F
RAYMOND        FAIR      72  66  83 W12       30.13R
VICKSBURG      MOSUNNY   74  50  42 W10G18    30.13F
$$

MSZ059>079-292200-
SOUTH MISSISSIPPI

CITY           SKY/WX    TMP DP  RH WIND       PRES   REMARKS
BROOKHAVEN     FAIR      75  46  35 SW9G16    30.15S
HATTIESBURG    SUNNY     76  51  41 SW10      30.14F
MCCOMB         SUNNY     76  48  37 SW8       30.14F
NATCHEZ        MOSUNNY   72  54  53 SW13G20   30.16F
PINE BELT      SUNNY     75  46  35 SW8       30.15F
$$

MSZ080>082-292200-
COASTAL MISSISSIPPI

CITY           SKY/WX    TMP DP  RH WIND       PRES   REMARKS
BAY ST LOUIS   MOSUNNY   73  52  46 SW12G17   30.19
BILOXI         SUNNY     67  55  64 S8        30.20F
PASCAGOULA     SUNNY     69  53  56 S8G17     30.20F
GULFPORT       SUNNY     67  54  63 S8        30.19F
$$


USA.gov is the U.S. government's official web portal to all federal, state and local government web resources and services.